FW0891 Weather Reports


time (UTC)temp
F
wind
direction
speed
knots
gust
knots
rain 1hr
in
rain 24hr
in
rain mn
in
humidity
%
barometer
mb
20260509212003 88 348 1.7 0.0 0.00 0.00 0.00 51 1007.1
20260509211003 90 337 4.3 0.0 0.00 0.00 0.00 51 1007.1
20260509210503 90 24 5.2 0.0 0.00 0.00 0.00 51 1007.0
20260509210003 90 14 7.0 0.0 0.00 0.00 0.00 51 1007.0
20260509205503 90 9 5.2 0.0 0.00 0.00 0.00 52 1007.0
20260509205003 89 9 3.5 0.0 0.00 0.00 0.00 54 1007.0
20260509204503 89 17 5.2 0.0 0.00 0.00 0.00 51 1007.1
20260509204003 89 63 5.2 0.0 0.00 0.00 0.00 53 1007.3
20260509202503 90 23 6.1 0.0 0.00 0.00 0.00 53 1007.6
20260509202003 90 18 6.1 0.0 0.00 0.00 0.00 55 1007.7
20260509201503 90 252 5.2 0.0 0.00 0.00 0.00 52 1007.7
20260509201003 90 273 5.2 0.0 0.00 0.00 0.00 50 1007.9
20260509200503 91 293 7.0 0.0 0.00 0.00 0.00 49 1007.8
20260509200003 90 173 2.6 0.0 0.00 0.00 0.00 50 1007.8
20260509195503 89 206 3.5 0.0 0.00 0.00 0.00 53 1007.9
20260509195003 89 231 5.2 0.0 0.00 0.00 0.00 53 1007.9
20260509194003 88 125 3.5 0.0 0.00 0.00 0.00 55 1007.9
20260509193503 89 233 3.5 0.0 0.00 0.00 0.00 55 1008.1
20260509193003 89 280 7.0 0.0 0.00 0.00 0.00 55 1008.2
20260509192003 88 141 3.5 0.0 0.00 0.00 0.00 56 1008.3
20260509191503 88 181 3.5 0.0 0.00 0.00 0.00 55 1008.4
20260509191003 88 217 5.2 0.0 0.00 0.00 0.00 55 1008.4
20260509190503 87 314 3.5 0.0 0.00 0.00 0.00 58 1008.6
20260509190003 87 268 5.2 0.0 0.00 0.00 0.00 58 1008.5
20260509185503 87 222 6.1 0.0 0.00 0.00 0.00 55 1008.6
20260509185003 88 139 4.3 0.0 0.00 0.00 0.00 57 1008.6
20260509184503 87 336 3.5 0.0 0.00 0.00 0.00 60 1008.7
20260509184003 86 205 1.7 0.0 0.00 0.00 0.00 62 1008.9
20260509183503 86 219 3.5 0.0 0.00 0.00 0.00 61 1008.9
20260509183003 86 280 3.5 0.0 0.00 0.00 0.00 65 1009.0
20260509182503 86 283 4.3 0.0 0.00 0.00 0.00 63 1009.1
20260509182003 86 184 3.5 0.0 0.00 0.00 0.00 62 1009.1
20260509181503 85 206 2.6 0.0 0.00 0.00 0.00 62 1009.3
20260509180503 85 251 2.6 0.0 0.00 0.00 0.00 64 1009.3
20260509180003 85 253 3.5 0.0 0.00 0.00 0.00 65 1009.4
20260509175503 85 274 1.7 0.0 0.00 0.00 0.00 64 1009.5
20260509175003 85 348 3.5 0.0 0.00 0.00 0.00 68 1009.6
20260509174503 84 338 3.5 0.0 0.00 0.00 0.00 69 1009.8
20260509173503 84 5 2.6 0.0 0.00 0.00 0.00 68 1010.0
20260509173003 84 349 2.6 0.0 0.00 0.00 0.00 71 1010.0
20260509171003 81 103 2.6 0.0 0.00 0.00 0.00 74 1009.9
20260509170504 82 156 1.7 0.0 0.00 0.00 0.00 74 1009.9
20260509170003 81 71 1.7 0.0 0.00 0.00 0.00 74 1010.0
20260509165503 81 297 0.9 0.0 0.00 0.00 0.00 75 1010.0
20260509165003 81 119 2.6 0.0 0.00 0.00 0.00 76 1010.0
20260509164503 80 120 1.7 0.0 0.00 0.00 0.00 79 1010.0
20260509163503 79 236 0.9 0.0 0.00 0.00 0.00 78 1010.0
20260509162503 79 173 2.6 0.0 0.00 0.00 0.00 78 1009.9
20260509162003 79 211 1.7 0.0 0.00 0.00 0.00 79 1009.9
20260509161003 78 182 2.6 0.0 0.00 0.00 0.00 81 1010.0
20260509160503 78 252 1.7 0.0 0.00 0.00 0.00 81 1010.1
20260509160003 78 207 3.5 0.0 0.00 0.00 0.00 81 1009.9
20260509155503 78 227 4.3 0.0 0.00 0.00 0.00 80 1010.0
20260509155003 78 195 4.3 0.0 0.00 0.00 0.00 80 1009.9
20260509154503 78 175 5.2 0.0 0.00 0.00 0.00 82 1009.9
20260509154003 78 216 4.3 0.0 0.00 0.00 0.00 81 1010.0
20260509153003 77 219 4.3 0.0 0.00 0.00 0.00 82 1010.0
20260509152003 77 211 6.1 0.0 0.00 0.00 0.00 83 1009.9
20260509151003 77 192 7.0 0.0 0.00 0.00 0.00 83 1009.8
20260509150502 77 194 7.8 0.0 0.00 0.00 0.00 83 1009.8
20260509150003 77 224 7.0 0.0 0.00 0.00 0.00 83 1009.7
20260509145503 77 174 9.6 0.0 0.00 0.00 0.00 83 1009.3
20260509144502 77 159 9.6 0.0 0.00 0.00 0.00 84 1008.8
20260509144003 77 194 11.3 0.0 0.00 0.00 0.00 84 1008.6
20260509143502 77 165 14.8 0.0 0.00 0.00 0.00 84 1008.5
20260509143002 77 181 13.0 0.0 0.00 0.00 0.00 85 1008.5
20260509142503 76 183 13.0 0.0 0.00 0.00 0.00 85 1008.5
20260509142002 76 174 13.0 0.0 0.00 0.00 0.00 86 1008.6
20260509141502 76 190 10.4 0.0 0.00 0.00 0.00 87 1009.0
20260509141002 75 184 9.6 0.0 0.00 0.00 0.00 88 1009.0
20260509140002 75 201 8.7 0.0 0.00 0.00 0.00 87 1009.2
20260509135502 75 182 8.7 0.0 0.00 0.00 0.00 88 1009.2
20260509134502 75 175 7.8 0.0 0.00 0.00 0.00 90 1009.3
20260509134002 75 170 8.7 0.0 0.00 0.00 0.00 90 1009.2
20260509133502 75 164 7.8 0.0 0.00 0.00 0.00 91 1009.2
20260509133003 74 173 7.8 0.0 0.00 0.00 0.00 91 1009.1
20260509132003 74 162 6.1 0.0 0.00 0.00 0.00 92 1009.2
20260509131503 74 147 4.3 0.0 0.00 0.00 0.00 92 1009.3
20260509131003 74 176 3.5 0.0 0.00 0.00 0.00 92 1009.3
20260509130503 74 160 3.5 0.0 0.00 0.00 0.00 93 1009.1
20260509130003 74 164 3.5 0.0 0.00 0.00 0.00 93 1009.0
20260509125503 74 155 4.3 0.0 0.00 0.00 0.00 93 1009.0
20260509125003 73 154 7.0 0.0 0.00 0.00 0.00 93 1008.9
20260509124503 73 132 5.2 0.0 0.00 0.00 0.00 93 1008.8
20260509124002 73 132 3.5 0.0 0.00 0.00 0.00 93 1009.1
20260509123503 73 104 1.7 0.0 0.00 0.00 0.00 93 1009.1
20260509123003 73 334 2.6 0.0 0.00 0.00 0.00 93 1009.3
20260509122503 73 345 0.9 0.0 0.00 0.00 0.00 94 1009.3
20260509122003 73 324 3.5 0.0 0.00 0.00 0.00 94 1009.4
20260509121503 73 331 3.5 0.0 0.00 0.00 0.00 94 1009.5
20260509121003 73 320 2.6 0.0 0.00 0.00 0.00 94 1009.5
20260509120503 73 294 3.5 0.0 0.00 0.00 0.00 94 1009.4
20260509120003 73 275 3.5 0.0 0.00 0.00 0.00 94 1009.4
20260509115503 73 292 3.5 0.0 0.00 0.00 0.00 94 1009.2
20260509115003 73 279 2.6 0.0 0.00 0.00 0.00 94 1009.2
20260509114003 73 234 1.7 0.0 0.00 0.00 0.00 94 1009.3
20260509113503 73 234 2.6 0.0 0.00 0.00 0.00 94 1009.3
20260509113003 73 254 2.6 0.0 0.00 0.00 0.00 94 1009.6
20260509112503 73 231 3.5 0.0 0.00 0.00 0.00 94 1009.6
20260509112003 73 254 3.5 0.0 0.00 0.00 0.00 94 1009.5
20260509111003 73 257 3.5 0.0 0.00 0.00 0.00 93 1009.6
20260509110503 73 245 3.5 0.0 0.00 0.00 0.00 93 1009.7
20260509110003 73 307 2.6 0.0 0.00 0.00 0.00 93 1009.6
20260509105503 73 320 3.5 0.0 0.00 0.00 0.00 93 1009.8
20260509105003 73 23 1.7 0.0 0.00 0.00 0.00 93 1009.8
20260509104503 73 355 3.5 0.0 0.00 0.00 0.00 93 1009.7
20260509104003 73 5 3.5 0.0 0.00 0.00 0.00 93 1009.7
20260509103503 73 5 1.7 0.0 0.00 0.00 0.00 93 1009.6
20260509103003 73 27 2.6 0.0 0.00 0.00 0.00 93 1009.6
20260509101503 73 262 0.0 0.0 0.00 0.00 0.00 92 1009.6
20260509101003 73 261 0.0 0.0 0.00 0.00 0.00 92 1009.6
20260509100502 73 277 0.0 0.0 0.00 0.00 0.00 92 1009.5
20260509095502 73 180 2.6 0.0 0.00 0.00 0.00 92 1009.0
20260509095002 73 167 3.5 0.0 0.00 0.00 0.00 91 1008.8
20260509094503 73 175 2.6 0.0 0.00 0.00 0.00 91 1009.0
20260509094002 73 147 2.6 0.0 0.00 0.00 0.00 91 1009.1
20260509093503 74 145 2.6 0.0 0.00 0.00 0.00 91 1009.0
20260509093002 74 119 1.7 0.0 0.00 0.00 0.00 90 1008.9
20260509092503 74 148 0.0 0.0 0.00 0.00 0.00 90 1008.9
20260509091502 74 193 1.7 0.0 0.00 0.00 0.00 90 1008.8
20260509091003 73 193 1.7 0.0 0.00 0.00 0.00 90 1008.7
20260509090503 74 176 3.5 0.0 0.00 0.00 0.00 90 1009.0
20260509090002 74 176 3.5 0.0 0.00 0.00 0.00 90 1009.0
20260509085502 74 169 2.6 0.0 0.00 0.00 0.00 90 1009.0
20260509085003 74 152 1.7 0.0 0.00 0.00 0.00 90 1009.2
20260509084503 74 187 2.6 0.0 0.00 0.00 0.00 90 1009.4
20260509084002 74 183 3.5 0.0 0.00 0.00 0.00 90 1009.8
20260509083503 74 156 4.3 0.0 0.00 0.00 0.00 89 1009.6
20260509083002 74 146 3.5 0.0 0.00 0.00 0.00 89 1009.4
20260509082002 74 205 0.9 0.0 0.00 0.00 0.00 89 1009.3
20260509081502 74 193 0.0 0.0 0.00 0.00 0.00 89 1009.5
20260509080502 74 196 1.7 0.0 0.00 0.00 0.00 89 1009.5
20260509080002 74 200 2.6 0.0 0.00 0.00 0.00 89 1009.5
20260509075003 74 162 4.3 0.0 0.00 0.00 0.00 89 1009.4
20260509074502 74 143 4.3 0.0 0.00 0.00 0.00 89 1009.3
20260509073503 74 149 4.3 0.0 0.00 0.00 0.00 89 1009.5
20260509073002 74 129 2.6 0.0 0.00 0.00 0.00 88 1009.6
20260509072503 74 131 3.5 0.0 0.00 0.00 0.00 88 1009.7
20260509072003 74 131 2.6 0.0 0.00 0.00 0.00 88 1009.7
20260509071502 74 123 2.6 0.0 0.00 0.00 0.00 88 1009.6
20260509070504 74 149 3.5 0.0 0.00 0.00 0.00 88 1009.6
20260509070004 74 125 4.3 0.0 0.00 0.00 0.00 88 1009.5
20260509065004 74 156 4.3 0.0 0.00 0.00 0.00 88 1009.6
20260509064504 74 133 5.2 0.0 0.00 0.00 0.00 88 1009.6
20260509062503 74 141 7.8 0.0 0.00 0.00 0.00 88 1009.2
20260509062003 74 135 7.8 0.0 0.00 0.00 0.00 88 1009.3
20260509061504 74 126 7.0 0.0 0.00 0.00 0.00 88 1009.3
20260509061004 74 131 6.1 0.0 0.00 0.00 0.00 88 1009.5
20260509060503 74 136 6.1 0.0 0.00 0.00 0.00 87 1009.3
20260509060004 74 141 7.0 0.0 0.00 0.00 0.00 87 1009.4
20260509055504 74 129 7.0 0.0 0.00 0.00 0.00 87 1009.5
20260509055004 74 131 7.8 0.0 0.00 0.00 0.00 87 1009.5
20260509054504 74 149 7.0 0.0 0.00 0.00 0.00 87 1009.4
20260509054004 74 153 8.7 0.0 0.00 0.00 0.00 87 1009.3
20260509053504 74 148 8.7 0.0 0.00 0.00 0.00 87 1009.0
20260509053004 74 145 9.6 0.0 0.00 0.00 0.00 87 1009.0
20260509052504 74 142 8.7 0.0 0.00 0.00 0.00 87 1009.0
20260509051504 74 149 7.8 0.0 0.00 0.00 0.00 87 1009.0
20260509051004 74 158 7.8 0.0 0.00 0.00 0.00 87 1009.0
20260509050004 74 149 9.6 0.0 0.00 0.00 0.01 87 1009.1
20260509045504 74 157 7.8 0.0 0.00 0.00 0.01 87 1009.0
20260509045004 74 145 9.6 0.0 0.00 0.00 0.01 87 1009.0
20260509044504 74 137 9.6 0.0 0.00 0.00 0.01 87 1008.9
20260509043504 74 132 9.6 0.0 0.00 0.00 0.01 87 1009.0
20260509043005 74 143 8.7 0.0 0.00 0.00 0.01 87 1008.9
20260509042504 74 143 9.6 0.0 0.00 0.00 0.01 87 1008.8
20260509042004 74 146 8.7 0.0 0.00 0.00 0.01 86 1008.7
20260509040504 75 136 11.3 0.0 0.00 0.00 0.01 85 1008.6
20260509040004 75 142 11.3 0.0 0.00 0.00 0.01 85 1008.7
20260509035504 75 145 10.4 0.0 0.00 0.00 0.01 84 1008.7
20260509035004 75 141 11.3 0.0 0.00 0.00 0.01 84 1008.6
20260509034504 75 148 11.3 0.0 0.00 0.00 0.01 83 1008.7
20260509034004 75 149 10.4 0.0 0.00 0.00 0.01 83 1008.8
20260509033503 75 148 10.4 0.0 0.00 0.00 0.01 83 1008.7
20260509033003 75 139 10.4 0.0 0.00 0.00 0.01 83 1008.7
20260509032503 75 139 9.6 0.0 0.00 0.00 0.01 83 1008.7
20260509032003 75 153 9.6 0.0 0.00 0.00 0.01 83 1008.7
20260509031503 75 132 9.6 0.0 0.00 0.00 0.01 83 1008.5
20260509030004 75 144 7.8 0.0 0.00 0.00 0.01 83 1008.5
20260509025503 75 120 7.8 0.0 0.00 0.00 0.01 83 1008.4
20260509025003 75 136 7.0 0.0 0.00 0.00 0.01 83 1008.2
20260509024003 75 129 6.1 0.0 0.00 0.00 0.01 83 1008.4
20260509023503 76 115 6.1 0.0 0.00 0.00 0.01 83 1008.4
20260509023003 76 115 5.2 0.0 0.00 0.00 0.01 82 1008.4
20260509022004 76 114 5.2 0.0 0.00 0.00 0.01 82 1008.3
20260509021504 76 97 3.5 0.0 0.00 0.00 0.01 82 1008.3
20260509021004 76 126 4.3 0.0 0.00 0.00 0.01 82 1008.3
20260509020504 76 110 4.3 0.0 0.00 0.00 0.01 82 1008.2
20260509020004 76 91 4.3 0.0 0.00 0.00 0.01 82 1008.2
20260509015004 76 99 4.3 0.0 0.00 0.00 0.01 81 1008.1
20260509014504 76 86 3.5 0.0 0.00 0.00 0.01 81 1008.1
20260509014003 76 99 3.5 0.0 0.00 0.00 0.01 81 1008.2
20260509013504 77 90 3.5 0.0 0.00 0.00 0.01 80 1008.2
20260509013003 77 97 4.3 0.0 0.00 0.00 0.01 80 1008.2
20260509012503 77 99 5.2 0.0 0.00 0.00 0.01 80 1008.2
20260509011003 77 97 4.3 0.0 0.00 0.00 0.01 79 1008.0
20260509010503 77 121 4.3 0.0 0.00 0.00 0.01 79 1008.0
20260509010003 77 114 6.1 0.0 0.00 0.00 0.01 78 1007.9
20260509005503 77 116 7.0 0.0 0.00 0.00 0.01 78 1007.7
20260509004503 78 118 7.8 0.0 0.00 0.00 0.01 77 1007.6
20260509004003 78 122 7.0 0.0 0.00 0.00 0.01 76 1007.6
20260509003503 78 123 7.8 0.0 0.00 0.00 0.01 76 1007.7
20260509002503 78 116 7.0 0.0 0.00 0.00 0.01 76 1007.8
20260509002004 78 125 8.7 0.0 0.00 0.00 0.01 75 1007.9
20260509001504 78 132 7.0 0.0 0.00 0.00 0.01 75 1007.9
20260509001004 78 125 7.0 0.0 0.00 0.00 0.01 75 1007.7
20260509000504 79 127 8.7 0.0 0.00 0.00 0.01 74 1007.8
20260509000004 79 128 7.8 0.0 0.00 0.00 0.01 74 1007.9
20260508235504 79 119 8.7 0.0 0.00 0.00 0.01 73 1007.8
20260508235004 80 117 8.7 0.0 0.00 0.00 0.01 73 1007.8
20260508234504 80 103 7.8 0.0 0.00 0.00 0.01 72 1007.8
20260508234004 80 135 7.8 0.0 0.00 0.00 0.01 71 1007.9
20260508233504 81 104 9.6 0.0 0.00 0.00 0.01 69 1007.6
20260508233004 81 99 8.7 0.0 0.00 0.00 0.01 69 1007.6
20260508232504 81 128 7.8 0.0 0.00 0.00 0.01 70 1007.7
20260508232004 82 121 8.7 0.0 0.00 0.00 0.01 67 1007.8
20260508231504 83 110 7.8 0.0 0.00 0.00 0.01 66 1007.7
20260508231004 82 115 7.0 0.0 0.00 0.00 0.01 68 1007.7
20260508225504 81 106 6.1 0.0 0.00 0.00 0.01 69 1007.8
20260508225004 80 123 7.8 0.0 0.00 0.00 0.01 71 1007.7
20260508224504 79 124 7.8 0.0 0.00 0.00 0.01 70 1007.9
20260508224004 79 126 7.8 0.0 0.00 0.00 0.01 70 1007.9
20260508223504 80 113 7.8 0.0 0.00 0.00 0.01 70 1007.9
20260508223004 80 123 7.0 0.0 0.00 0.00 0.01 69 1007.9
20260508222004 81 145 8.7 0.0 0.00 0.00 0.01 68 1008.0
20260508221004 82 118 7.0 0.0 0.00 0.00 0.01 66 1007.9
20260508220504 81 133 6.1 0.0 0.00 0.00 0.01 68 1007.9
20260508220004 80 109 6.1 0.0 0.00 0.00 0.01 68 1007.9
20260508215504 80 176 5.2 0.0 0.00 0.00 0.01 68 1008.1
20260508215004 81 146 5.2 0.0 0.00 0.00 0.01 66 1008.1
20260508214504 82 178 4.3 0.0 0.00 0.00 0.01 66 1008.2
20260508214004 82 194 4.3 0.0 0.00 0.00 0.01 64 1008.2
20260508213504 82 142 6.1 0.0 0.00 0.00 0.01 64 1008.2
20260508213004 83 174 6.1 0.0 0.00 0.00 0.01 63 1008.3
20260508212504 84 193 4.3 0.0 0.00 0.00 0.01 61 1008.3